TimePDT,TemperatureF,Dew PointF,Humidity,Sea Level PressureIn,VisibilityMPH,Wind Direction,Wind SpeedMPH,Gust SpeedMPH,PrecipitationIn,Events,Conditions,WindDirDegrees,DateUTC
12:53 AM,66.9,44.1,44,29.84,10.0,West,5.8,-,N/A,,Clear,280,2013-07-29 07:53:00
1:53 AM,66.9,46.0,47,29.84,10.0,NW,9.2,-,N/A,,Clear,320,2013-07-29 08:53:00
2:53 AM,66.0,45.0,47,29.85,10.0,North,8.1,-,N/A,,Clear,350,2013-07-29 09:53:00
3:53 AM,64.0,46.0,52,29.86,10.0,NNW,6.9,-,N/A,,Clear,340,2013-07-29 10:53:00
4:53 AM,61.0,46.0,58,29.87,10.0,NW,5.8,-,N/A,,Clear,310,2013-07-29 11:53:00
5:53 AM,59.0,46.0,62,29.88,10.0,West,8.1,-,N/A,,Clear,280,2013-07-29 12:53:00
6:53 AM,60.1,46.9,62,29.90,10.0,West,8.1,-,N/A,,Clear,270,2013-07-29 13:53:00
7:53 AM,63.0,46.9,56,29.90,10.0,West,8.1,-,N/A,,Clear,270,2013-07-29 14:53:00
8:53 AM,69.1,46.9,45,29.91,10.0,NW,6.9,-,N/A,,Clear,320,2013-07-29 15:53:00
9:53 AM,73.0,48.0,41,29.89,10.0,NW,6.9,-,N/A,,Clear,320,2013-07-29 16:53:00
10:53 AM,78.1,48.9,36,29.88,10.0,West,4.6,-,N/A,,Clear,260,2013-07-29 17:53:00
11:53 AM,82.0,44.1,26,29.87,9.0,Calm,Calm,-,N/A,,Clear,0,2013-07-29 18:53:00
12:53 PM,84.9,41.0,21,29.85,10.0,Calm,Calm,-,N/A,,Clear,0,2013-07-29 19:53:00
1:53 PM,87.1,45.0,23,29.85,10.0,Variable,6.9,-,N/A,,Clear,0,2013-07-29 20:53:00
2:53 PM,87.1,39.0,18,29.83,10.0,Calm,Calm,-,N/A,,Clear,0,2013-07-29 21:53:00
3:53 PM,89.1,32.0,13,29.83,10.0,SE,4.6,-,N/A,,Clear,140,2013-07-29 22:53:00
4:53 PM,89.1,39.0,17,29.81,10.0,ESE,3.5,-,N/A,,Clear,120,2013-07-29 23:53:00
5:53 PM,88.0,42.1,20,29.81,10.0,SE,4.6,-,N/A,,Clear,140,2013-07-30 00:53:00
6:53 PM,84.9,45.0,25,29.81,9.0,South,5.8,-,N/A,,Clear,180,2013-07-30 01:53:00
7:53 PM,82.9,44.1,25,29.82,10.0,Calm,Calm,-,N/A,,Clear,0,2013-07-30 02:53:00
8:53 PM,73.9,45.0,35,29.84,9.0,Calm,Calm,-,N/A,,Clear,0,2013-07-30 03:53:00
9:53 PM,75.9,51.1,42,29.86,10.0,West,6.9,-,N/A,,Clear,270,2013-07-30 04:53:00
10:53 PM,75.9,51.1,42,29.88,10.0,WNW,5.8,-,N/A,,Clear,300,2013-07-30 05:53:00
11:53 PM,73.9,52.0,46,29.89,10.0,West,3.5,-,N/A,,Clear,270,2013-07-30 06:53:00